Terminal Aerodrome Forecast
Issued by NWS

Home | Current Version | Previous Version | Text Only | Print | Product List | Glossary On
Versions: 1 2 3 4 5 6 7 8 9 10 11 12 13 14 15 16 17 18 19
000
FTUS43 KJKL 180520
TAFSME
TAF
KSME 180520Z 1806/1906 VRB03KT 6SM -DZ BR SCT003 OVC008
     FM181000 VRB03KT 1SM -DZ BR SCT001 OVC003
     FM181600 VRB03KT 6SM -DZ BR OVC008
     FM181900 VRB05KT P6SM OVC010
     FM190500 VRB03KT P6SM BKN008=

USA.gov is the U.S. government's official web portal to all federal, state and local government web resources and services.